[[{"header":{"parameterUnit":"m.s-1","parameterCategory":1,"la1":30.2991,"la2":30.254,"lo1":-89.0895,"lo2":-89.0444,"dy":0.0017,"dx":0.0017,"nx":28,"ny":28,"refTime":"2026-02-09T03:00:00:Z","depth":0,"parameterNumber":2,"parameterNumberName":"U-component_of_WINDS"},"data":[0,0,0,0,0,0,0,0,0,0,0,0,0,0,0,0,0,0,0,0,0,0,0,0,0,0,0,0,0,0,0,0,0,0,0,0,0,0,0,0,0,0,0,0,0,0,0,0,0,0,0,0,0,0,0,0,0,0,-0.0301,-0.03,0,-0.0192,-0.0191,-0.019,-0.0151,-0.0152,-0.0152,-0.0152,-0.0043,-0.0039,-0.0036,0,0,0,0,0,0,0,0,0,0,0,0,0,-0.0476,-0.0473,-0.0301,-0.03,-0.0298,-0.0193,-0.0191,-0.019,-0.0151,-0.0152,-0.0152,-0.0152,-0.0044,-0.004,-0.0036,0,0,0,0,0,0,0,0,0,0,0,0,0,-0.0387,-0.0472,-0.0301,-0.0266,-0.0262,-0.0193,-0.0191,-0.0189,-0.0151,-0.0152,-0.0152,-0.0153,-0.0045,-0.004,-0.0035,0.0007,0,0,-0.002,-0.0018,0,0,0,0,0,0,0,0,-0.0393,-0.0381,-0.0273,-0.0269,-0.0264,-0.0186,-0.0213,-0.0124,-0.0151,-0.0193,-0.0152,-0.0153,-0.009,-0.0081,-0.006,0.0012,0.0017,-0.002,-0.0017,-0.0015,-0.0013,0,0,0,0,0,0,0,-0.0399,-0.0385,-0.0258,-0.0271,-0.0266,-0.0257,-0.0245,-0.0196,-0.014,-0.019,-0.0186,-0.0174,-0.0087,-0.0065,-0.0057,0.0018,-0.002,-0.0016,-0.0013,-0.0011,0.0129,0.013,0,0,0,0,0,0,-0.0411,-0.0391,-0.0261,-0.0255,-0.0331,-0.0253,-0.0239,-0.021,-0.014,-0.013,-0.0174,-0.0173,-0.0073,-0.0063,-0.0053,0.0001,-0.0015,-0.001,-0.0007,0.0129,0.0129,0.013,0,0,0,0,0,0,-0.0414,-0.0399,-0.0266,-0.0322,-0.0304,-0.0249,-0.0217,-0.0208,-0.0185,-0.0128,-0.0118,-0.016,-0.0073,-0.006,-0.0008,0.0006,-0.0008,-0.0003,0.0128,0.0129,0.013,0.0109,0,0,0,0,0,0,-0.042,-0.0401,-0.0384,-0.0322,-0.0301,-0.0223,-0.0216,-0.0205,-0.0176,-0.0174,-0.0113,-0.0103,-0.0072,-0.0016,-0.0003,0.0012,0.0,0.0127,0.0128,0.0129,0.0109,0.011,0.011,0,0,0,0,0,-0.0426,-0.0394,-0.0383,-0.0368,-0.0279,-0.0222,-0.021,-0.0175,-0.0175,-0.0158,-0.0122,-0.0105,0.0002,-0.0011,0.0003,0.0021,0.0126,0.0128,0.0129,0.0109,0.0109,0.011,0,0,0,0,0,0,-0.0457,-0.0386,-0.0373,-0.032,-0.0277,-0.0216,-0.0192,-0.0175,-0.0132,-0.0131,-0.0089,-0.0076,-0.0028,0.0001,-0.0014,0.0065,0.0065,0.0069,0.0044,0.0045,0.0046,0.0038,0.0005,0,0,0,0,0,-0.0458,-0.0417,-0.0357,-0.0316,-0.0295,-0.0248,-0.0222,-0.0198,-0.0152,-0.0134,-0.0094,-0.0051,-0.0007,0.002,0.0063,0.0113,0.0127,0.0132,0.0132,0.0132,0.0136,0.0164,0.0167,0.0136,0.0136,0.0136,0,0,-0.0458,-0.0415,-0.0391,-0.0321,-0.0285,-0.0244,-0.0233,-0.019,-0.0159,-0.0128,-0.0076,-0.0046,0.0005,0.0056,0.008,0.0082,0.0148,0.0135,0.0134,0.0138,0.0166,0.0169,0.0172,0.0137,0.0137,0.0137,0,0,-0.0439,-0.0402,-0.0363,-0.0328,-0.0274,-0.0242,-0.0233,-0.0174,-0.0152,-0.01,-0.0076,-0.0039,0.0035,0.007,0.0098,0.013,0.0147,0.0143,0.0146,0.0173,0.0175,0.0178,0.0189,0.0193,0.0146,0.0146,0.0146,0,-0.0447,-0.0384,-0.0346,-0.0304,-0.0274,-0.0244,-0.0205,-0.0173,-0.0107,-0.0088,-0.0087,0.0006,0.0043,0.0102,0.011,0.0131,0.0143,0.0136,0.0172,0.0175,0.0178,0.0189,0.0193,0.0145,0.0145,0.0145,0.0145,0,-0.0396,-0.0353,-0.0328,-0.0266,-0.0233,-0.0193,-0.015,-0.0122,-0.0101,-0.007,-0.0018,0.0027,0.0079,0.0095,0.0115,0.0157,0.0156,0.0164,0.0165,0.0179,0.0191,0.0196,0.0144,0.0144,0.0144,0.0145,0,0,-0.0392,-0.0309,-0.0301,-0.0272,-0.021,-0.0176,-0.0136,-0.0083,-0.006,-0.0017,0.0019,0.008,0.0088,0.0119,0.0143,0.0167,0.019,0.0172,0.0174,0.0174,0.0239,0.0233,0.0237,0.0201,0.0202,0.0202,0.0234,0,-0.0364,-0.0288,-0.0254,-0.0194,-0.0153,-0.0124,-0.0089,-0.0047,-0.0018,0.002,0.0053,0.0096,0.0102,0.0122,0.0146,0.0182,0.0203,0.018,0.0234,0.0235,0.0221,0.0244,0.0238,0.0266,0.0239,0.024,0.024,0,-0.0321,-0.0277,-0.0213,-0.0156,-0.0137,-0.0106,-0.0056,-0.0019,0.0028,0.0048,0.0082,0.0106,0.0149,0.0146,0.0207,0.019,0.0214,0.0234,0.0236,0.0243,0.0239,0.0252,0.0276,0.028,0.0248,0.0247,0.0247,0,-0.0324,-0.0248,-0.02,-0.0176,-0.0109,-0.0088,-0.0059,-0.0012,0.0017,0.006,0.0079,0.0127,0.0153,0.0189,0.0224,0.0219,0.0281,0.0281,0.0299,0.0298,0.0312,0.031,0.0341,0.0326,0.0326,0.0325,0.0325,0,-0.0296,-0.0257,-0.02,-0.0171,-0.0127,-0.0089,-0.0047,-0.0016,0.0025,0.0061,0.0088,0.0121,0.0165,0.0203,0.0231,0.0277,0.0288,0.0305,0.0312,0.0303,0.0301,0.032,0.0319,0.0327,0.0326,0.0326,0.0326,0,-0.0291,-0.0251,-0.0197,-0.0137,-0.0122,-0.0092,-0.0042,-0.0012,0.0018,0.0063,0.0076,0.0124,0.017,0.0209,0.0269,0.0288,0.0336,0.0343,0.032,0.0324,0.0339,0.0337,0.0383,0.0391,0.037,0.037,0.037,0,-0.0275,-0.0245,-0.0182,-0.0156,-0.0127,-0.0086,-0.0056,-0.0017,0.0013,0.0068,0.0091,0.0139,0.018,0.0253,0.0293,0.0339,0.0348,0.0361,0.0356,0.0345,0.0349,0.0347,0.035,0.0362,0.0362,0.0362,0.0362,0,-0.0251,-0.0233,-0.0191,-0.0142,-0.0107,-0.0067,-0.0026,-0.0006,0.004,0.0072,0.012,0.0152,0.0213,0.0261,0.0311,0.034,0.0359,0.0363,0.037,0.0361,0.0347,0.0355,0.0322,0.0362,0.0362,0.0362,0.0362,0.0362,-0.024,-0.0212,-0.0163,-0.0117,-0.0082,-0.0045,-0.0014,0.0021,0.0062,0.0116,0.0136,0.0185,0.023,0.03,0.0329,0.0368,0.037,0.0379,0.0382,0.0384,0.0383,0.034,0.0377,0.0377,0.0377,0.0377,0.0377,0,-0.0214,-0.0182,-0.014,-0.0083,-0.0047,-0.0033,0.0013,0.0042,0.0085,0.0127,0.0166,0.0221,0.0267,0.031,0.0358,0.0381,0.039,0.0392,0.0391,0.0398,0.0378,0.0367,0.0384,0.0384,0.0384,0.0384,0.0384,0.0384,-0.0196,-0.0148,-0.0124,-0.0058,-0.0026,0.0023,0.0048,0.0082,0.0116,0.0176,0.0214,0.0242,0.0285,0.0336,0.0378,0.039,0.0406,0.0406,0.0419,0.04,0.0399,0.0398,0.0389,0.0409,0.0409,0.0436,0.0437,0.0437]},{"header":{"parameterUnit":"m.s-1","parameterCategory":1,"la1":30.2991,"la2":30.254,"lo1":-89.0895,"lo2":-89.0444,"dy":0.0017,"dx":0.0017,"nx":28,"ny":28,"refTime":"2026-02-09T03:00:00:Z","depth":0,"parameterNumber":3,"parameterNumberName":"V-component_of_WINDS"},"data":[0,0,0,0,0,0,0,0,0,0,0,0,0,0,0,0,0,0,0,0,0,0,0,0,0,0,0,0,0,0,0,0,0,0,0,0,0,0,0,0,0,0,0,0,0,0,0,0,0,0,0,0,0,0,0,0,0,0,2.3612,2.3613,0,2.3687,2.3688,2.3689,2.3663,2.3661,2.366,2.3658,2.3731,2.3734,2.3738,0,0,0,0,0,0,0,0,0,0,0,0,0,2.3443,2.3446,2.3612,2.3613,2.3614,2.3687,2.3688,2.3689,2.3663,2.3661,2.3659,2.3658,2.373,2.3734,2.3738,0,0,0,0,0,0,0,0,0,0,0,0,0,2.3517,2.3447,2.3612,2.361,2.3611,2.3687,2.3688,2.369,2.3664,2.3661,2.3659,2.3657,2.3729,2.3734,2.3739,2.382,0,0,2.3755,2.3757,0,0,0,0,0,0,0,0,2.3513,2.3523,2.361,2.3611,2.3611,2.3663,2.3655,2.3733,2.3664,2.3644,2.3658,2.3655,2.371,2.3717,2.3736,2.3824,2.3827,2.3755,2.3758,2.376,2.3762,0,0,0,0,0,0,0,2.3507,2.352,2.3642,2.3611,2.3612,2.3604,2.3612,2.367,2.369,2.3645,2.3644,2.3653,2.371,2.3731,2.3738,2.3828,2.3755,2.376,2.3763,2.3765,2.3986,2.3989,0,0,0,0,0,0,2.3502,2.3515,2.3639,2.3644,2.3555,2.3609,2.3618,2.3649,2.3689,2.3693,2.3655,2.3651,2.3724,2.3732,2.374,2.384,2.376,2.3765,2.3768,2.3984,2.3987,2.399,0,0,0,0,0,0,2.3499,2.3514,2.3636,2.3579,2.3595,2.3615,2.365,2.3652,2.3673,2.3697,2.3699,2.3673,2.3722,2.3733,2.3801,2.3842,2.3768,2.3772,2.398,2.3985,2.3989,2.4039,0,0,0,0,0,0,2.3494,2.3513,2.3545,2.358,2.3598,2.3698,2.3652,2.3655,2.3683,2.3679,2.3714,2.3718,2.3721,2.3793,2.3806,2.3848,2.3776,2.3977,2.3982,2.3987,2.4033,2.4044,2.4053,0,0,0,0,0,2.3488,2.3555,2.3547,2.3562,2.3639,2.37,2.371,2.3713,2.3686,2.3718,2.3733,2.3717,2.3835,2.3801,2.3815,2.3858,2.3974,2.3981,2.3987,2.4029,2.4042,2.4053,0,0,0,0,0,0,2.3522,2.3559,2.3551,2.3631,2.3663,2.3696,2.3736,2.3726,2.3765,2.376,2.3761,2.3769,2.384,2.3855,2.3816,2.394,2.39,2.391,2.3927,2.394,2.3949,2.3945,2.3781,0,0,0,0,0,2.3539,2.3587,2.3616,2.3684,2.3701,2.3716,2.3743,2.3743,2.3775,2.3788,2.3808,2.3838,2.3882,2.3911,2.3953,2.4034,2.4042,2.4071,2.4081,2.4089,2.4098,2.4143,2.4157,2.401,2.401,2.401,0,0,2.3574,2.36,2.3631,2.3692,2.3716,2.3766,2.3727,2.378,2.3817,2.3795,2.3862,2.3877,2.3911,2.3987,2.4021,2.4002,2.4139,2.4097,2.4103,2.4108,2.4151,2.4165,2.4177,2.4015,2.4014,2.4013,0,0,2.3664,2.3688,2.3749,2.3775,2.3813,2.3822,2.3837,2.3871,2.3881,2.3948,2.3934,2.3975,2.4051,2.4077,2.4099,2.4199,2.4186,2.4212,2.4264,2.4308,2.432,2.433,2.4367,2.438,2.422,2.422,2.422,0,2.3703,2.3778,2.3781,2.3836,2.3864,2.3847,2.3908,2.3932,2.3981,2.4,2.3978,2.4073,2.4095,2.4177,2.4202,2.422,2.4236,2.4209,2.4318,2.4328,2.4338,2.4373,2.4387,2.4223,2.4223,2.4223,2.4222,0,2.3825,2.3877,2.392,2.3971,2.4003,2.406,2.4071,2.4102,2.4099,2.411,2.4179,2.4204,2.4251,2.427,2.4266,2.4352,2.4339,2.4317,2.4278,2.4355,2.4388,2.4402,2.4228,2.4227,2.4226,2.4225,0,0,2.394,2.3991,2.4008,2.4031,2.4071,2.4111,2.4167,2.4215,2.4243,2.4276,2.4324,2.4388,2.4369,2.4395,2.4393,2.4432,2.4511,2.4405,2.4406,2.4426,2.4608,2.4626,2.4642,2.4501,2.4504,2.4506,2.4606,0,2.4035,2.4137,2.4141,2.4233,2.4281,2.4266,2.4315,2.4345,2.4356,2.4398,2.441,2.4457,2.4426,2.4442,2.4479,2.4494,2.4548,2.4486,2.4546,2.4548,2.4541,2.4659,2.4679,2.4772,2.4619,2.4621,2.4623,0,2.4161,2.4201,2.4299,2.4334,2.4354,2.4399,2.4443,2.4483,2.4516,2.4521,2.4551,2.4544,2.46,2.4557,2.4635,2.4593,2.4617,2.4628,2.4631,2.4639,2.4592,2.4672,2.4802,2.4817,2.4643,2.4641,2.464,0,2.4238,2.4316,2.4385,2.4405,2.4447,2.4479,2.4497,2.4527,2.4556,2.4594,2.4612,2.4655,2.4679,2.4712,2.4717,2.4685,2.4796,2.4753,2.4802,2.4802,2.4829,2.4827,2.4966,2.484,2.484,2.4839,2.4839,0,2.4346,2.4407,2.4421,2.4464,2.4531,2.4534,2.46,2.4616,2.4643,2.4688,2.4675,2.4717,2.4719,2.4761,2.4765,2.483,2.484,2.4846,2.4847,2.4849,2.4848,2.4867,2.4861,2.4843,2.4842,2.4841,2.4841,0,2.4445,2.4457,2.4532,2.4565,2.4575,2.4624,2.4651,2.4692,2.4702,2.4759,2.4772,2.4787,2.4837,2.4844,2.4901,2.4903,2.4982,2.4974,2.4972,2.4972,2.5022,2.5018,2.5179,2.5201,2.5058,2.5059,2.506,0,2.4515,2.4562,2.4601,2.4631,2.4652,2.47,2.4729,2.4733,2.4764,2.4805,2.484,2.4888,2.4928,2.5007,2.5023,2.5066,2.5061,2.5114,2.5068,2.5069,2.5065,2.5063,2.5068,2.5124,2.5126,2.5127,2.5128,0,2.4638,2.4641,2.4686,2.4733,2.4769,2.4805,2.4839,2.4864,2.4871,2.4907,2.4958,2.4989,2.5048,2.5096,2.514,2.5156,2.5144,2.5142,2.5157,2.5161,2.5159,2.5163,2.4999,2.5139,2.5138,2.5138,2.5137,2.5136,2.4726,2.4767,2.4802,2.4852,2.4878,2.4911,2.4951,2.4967,2.501,2.506,2.5058,2.5115,2.5146,2.5203,2.5223,2.5267,2.5249,2.5269,2.5275,2.528,2.5286,2.515,2.5274,2.5274,2.5273,2.5273,2.5273,0,2.485,2.4872,2.4918,2.4967,2.5006,2.4991,2.5028,2.5062,2.5113,2.5143,2.5183,2.5242,2.5288,2.5307,2.5353,2.5384,2.538,2.5396,2.5395,2.54,2.5298,2.5283,2.5399,2.5399,2.5399,2.5399,2.5399,2.5399,2.492,2.499,2.4998,2.5081,2.5101,2.5159,2.5181,2.5211,2.5235,2.5303,2.5343,2.5355,2.5381,2.5428,2.547,2.5474,2.5492,2.5512,2.5514,2.5419,2.5407,2.5395,2.538,2.5515,2.5516,2.5612,2.5613,2.5614]}]]